Location: Centerville
(32.8776°N, 96.6203°W)
Time: 01:07:28
(UTC+00:00)

BREEZE-M DEB (TANK) - Pass Details

Date: 17 June 2021
Orbit: 332 x 16574 km, 49.3° (Epoch: 27 July)

Event Time Altitude Azimuth Distance (km) Brightness Sun altitude
Rises 03:13:51 0° 217° (SW) 14,745 9.5 -17.2°
Reaches altitude 10° 03:30:51 10° 217° (SW) 10,434 8.6 -19.7°
Maximum altitude 03:56:50 70° 140° (SE) 1,761 4.5 -23.3°
Drops below altitude 10° 04:02:14 10° 57° (ENE) 2,494 5.6 -23.9°
Sets 04:03:40 0° 55° (NE) 3,069 6.1 -24.1°
